| time (UTC) | temp F | wind direction | speed MPH | gust MPH | rain 1hr in | rain 24hr in | rain mn in | humidity % | barometer mb |
| 20260906000519 | 52 | 232 | 0.0 | 11.0 | 0.00 | 0.00 | 0.00 | 98 | 1014.1 |
| 20260906000018 | 51 | 232 | 0.0 | 11.0 | 0.00 | 0.00 | 0.00 | 98 | 1014.1 |
| 20260905235003 | 51 | 293 | 0.0 | 11.0 | 0.00 | 0.00 | 0.00 | 98 | 1013.8 |
| 20260905234501 | 51 | 317 | 0.0 | 11.0 | 0.00 | 0.00 | 0.00 | 98 | 1014.0 |
| 20260905234001 | 51 | 319 | 0.0 | 11.0 | 0.00 | 0.00 | 0.00 | 98 | 1013.8 |
| 20260905233500 | 51 | 324 | 0.0 | 11.0 | 0.00 | 0.00 | 0.00 | 98 | 1013.6 |
| 20260905233000 | 51 | 263 | 0.0 | 11.0 | 0.00 | 0.00 | 0.00 | 98 | 1013.4 |
| 20260905232459 | 51 | 243 | 0.0 | 11.0 | 0.00 | 0.00 | 0.00 | 98 | 1013.4 |
| 20260905231958 | 50 | 233 | 0.0 | 11.0 | 0.00 | 0.00 | 0.00 | 98 | 1013.2 |
| 20260905230943 | 50 | 233 | 0.0 | 11.0 | 0.00 | 0.00 | 0.00 | 97 | 1013.0 |
| 20260905230443 | 50 | 233 | 0.0 | 11.0 | 0.00 | 0.00 | 0.00 | 97 | 1013.2 |
| 20260905225428 | 50 | 234 | 0.0 | 11.0 | 0.00 | 0.00 | 0.00 | 97 | 1013.0 |
| 20260905224928 | 51 | 229 | 0.0 | 11.0 | 0.00 | 0.00 | 0.00 | 97 | 1012.7 |
| 20260905224426 | 51 | 224 | 0.0 | 11.0 | 0.00 | 0.00 | 0.00 | 97 | 1012.6 |
| 20260905223925 | 51 | 264 | 0.0 | 11.0 | 0.00 | 0.00 | 0.00 | 97 | 1012.9 |
| 20260905223424 | 51 | 288 | 0.0 | 11.0 | 0.00 | 0.00 | 0.00 | 97 | 1012.4 |
| 20260905222407 | 51 | 289 | 0.0 | 11.0 | 0.00 | 0.00 | 0.00 | 98 | 1012.4 |
| 20260905221906 | 51 | 287 | 0.0 | 11.0 | 0.00 | 0.00 | 0.00 | 98 | 1012.2 |
| 20260905221405 | 51 | 250 | 0.0 | 11.0 | 0.00 | 0.00 | 0.00 | 98 | 1012.1 |
| 20260905220905 | 50 | 253 | 0.0 | 11.0 | 0.00 | 0.00 | 0.00 | 98 | 1012.2 |
| 20260905220405 | 50 | 253 | 0.0 | 11.0 | 0.00 | 0.00 | 0.00 | 97 | 1011.9 |
| 20260905215905 | 50 | 241 | 0.0 | 11.0 | 0.00 | 0.00 | 1.17 | 97 | 1011.8 |
| 20260905215405 | 50 | 221 | 0.0 | 11.0 | 0.00 | 0.00 | 1.17 | 97 | 1011.9 |
| 20260905214905 | 50 | 226 | 0.0 | 11.0 | 0.00 | 0.00 | 1.17 | 97 | 1011.8 |
| 20260905214404 | 50 | 219 | 0.0 | 11.0 | 0.00 | 0.00 | 1.17 | 97 | 1011.5 |
| 20260905213904 | 50 | 239 | 0.0 | 11.0 | 0.00 | 0.00 | 1.17 | 97 | 1011.5 |
| 20260905213404 | 50 | 253 | 0.0 | 11.0 | 0.00 | 0.00 | 1.17 | 97 | 1011.5 |
| 20260905212904 | 50 | 253 | 0.0 | 11.0 | 0.00 | 0.00 | 1.17 | 97 | 1011.6 |
| 20260905212404 | 50 | 253 | 0.0 | 11.0 | 0.00 | 0.00 | 1.17 | 97 | 1011.4 |
| 20260905211904 | 50 | 253 | 0.0 | 11.0 | 0.00 | 0.00 | 1.17 | 97 | 1011.2 |
| 20260905211404 | 50 | 255 | 0.0 | 11.0 | 0.00 | 0.00 | 1.17 | 97 | 1011.2 |
| 20260905210903 | 50 | 256 | 0.0 | 11.0 | 0.00 | 0.00 | 1.17 | 97 | 1011.2 |
| 20260905210402 | 50 | 256 | 0.0 | 11.0 | 0.00 | 0.00 | 1.17 | 97 | 1010.9 |
| 20260905205902 | 50 | 256 | 0.0 | 11.0 | 0.00 | 0.00 | 1.17 | 97 | 1010.7 |
| 20260905205402 | 50 | 256 | 0.0 | 11.0 | 0.00 | 0.00 | 1.17 | 97 | 1010.5 |
| 20260905204901 | 50 | 256 | 0.0 | 11.0 | 0.00 | 0.00 | 1.17 | 97 | 1010.5 |
| 20260905204401 | 50 | 280 | 0.0 | 11.0 | 0.00 | 0.00 | 1.17 | 97 | 1010.7 |
| 20260905203900 | 50 | 236 | 0.0 | 11.0 | 0.00 | 0.00 | 1.17 | 97 | 1010.4 |
| 20260905203400 | 50 | 238 | 0.0 | 11.0 | 0.00 | 0.00 | 1.17 | 96 | 1010.4 |
| 20260905202900 | 50 | 227 | 0.0 | 11.0 | 0.00 | 0.00 | 1.17 | 96 | 1010.1 |
| 20260905202359 | 50 | 226 | 0.0 | 11.0 | 0.00 | 0.00 | 1.17 | 96 | 1009.9 |
| 20260905201858 | 50 | 226 | 0.0 | 11.0 | 0.00 | 0.00 | 1.17 | 96 | 1009.9 |
| 20260905201357 | 50 | 227 | 0.0 | 11.0 | 0.00 | 0.00 | 1.17 | 96 | 1009.9 |
| 20260905200857 | 50 | 222 | 0.0 | 11.0 | 0.00 | 0.00 | 1.17 | 96 | 1009.7 |
| 20260905200357 | 51 | 222 | 0.0 | 11.0 | 0.00 | 0.00 | 1.17 | 96 | 1009.8 |
| 20260905195857 | 51 | 226 | 0.0 | 11.0 | 0.00 | 0.00 | 1.17 | 96 | 1009.6 |
| 20260905195356 | 51 | 237 | 0.0 | 11.0 | 0.01 | 0.00 | 1.17 | 96 | 1009.4 |
| 20260905194855 | 51 | 237 | 0.0 | 11.0 | 0.01 | 0.00 | 1.17 | 96 | 1009.8 |
| 20260905193839 | 51 | 237 | 0.0 | 11.0 | 0.03 | 0.00 | 1.17 | 96 | 1009.2 |
| 20260905193339 | 51 | 237 | 0.0 | 11.0 | 0.05 | 0.00 | 1.17 | 96 | 1008.9 |
| 20260905192839 | 52 | 237 | 0.0 | 11.0 | 0.07 | 0.00 | 1.17 | 96 | 1009.1 |
| 20260905191822 | 52 | 237 | 0.0 | 11.0 | 0.17 | 0.00 | 1.17 | 96 | 1008.7 |
| 20260905191322 | 52 | 237 | 0.0 | 11.0 | 0.19 | 0.00 | 1.17 | 96 | 1008.9 |
| 20260905190822 | 52 | 237 | 0.0 | 11.0 | 0.26 | 0.00 | 1.17 | 95 | 1008.6 |
| 20260905190321 | 52 | 237 | 0.0 | 11.0 | 0.28 | 0.00 | 1.17 | 95 | 1009.0 |
| 20260905185821 | 52 | 237 | 0.0 | 11.0 | 0.28 | 0.00 | 1.17 | 95 | 1008.7 |
| 20260905185320 | 53 | 230 | 0.0 | 11.0 | 0.27 | 0.00 | 1.17 | 95 | 1009.0 |
| 20260905184819 | 53 | 234 | 0.0 | 11.0 | 0.27 | 0.00 | 1.16 | 96 | 1008.9 |
| 20260905183803 | 53 | 234 | 0.0 | 11.0 | 0.25 | 0.00 | 1.14 | 96 | 1009.0 |
| 20260905183302 | 53 | 247 | 0.0 | 11.0 | 0.23 | 0.00 | 1.12 | 95 | 1008.9 |
| 20260905182801 | 53 | 243 | 0.0 | 11.0 | 0.22 | 0.00 | 1.11 | 95 | 1008.6 |
| 20260905182301 | 53 | 234 | 1.0 | 11.0 | 0.19 | 0.00 | 1.08 | 94 | 1008.7 |
| 20260905181801 | 53 | 258 | 0.0 | 11.0 | 0.12 | 0.00 | 1.01 | 94 | 1008.6 |
| 20260905181301 | 54 | 268 | 0.0 | 11.0 | 0.11 | 0.00 | 1.00 | 94 | 1008.3 |
| 20260905180800 | 54 | 285 | 0.0 | 11.0 | 0.06 | 0.00 | 0.96 | 94 | 1008.3 |
| 20260905180259 | 54 | 257 | 0.0 | 11.0 | 0.00 | 0.00 | 0.89 | 95 | 1008.4 |
| 20260905175758 | 54 | 266 | 0.0 | 11.0 | 0.00 | 0.00 | 0.89 | 95 | 1008.3 |
| 20260905175257 | 54 | 228 | 0.0 | 11.0 | 0.00 | 0.00 | 0.89 | 95 | 1008.1 |
| 20260905174757 | 54 | 219 | 0.0 | 11.0 | 0.00 | 0.00 | 0.89 | 95 | 1007.8 |
| 20260905174257 | 54 | 210 | 0.0 | 11.0 | 0.02 | 0.00 | 0.89 | 95 | 1007.8 |
| 20260905173756 | 54 | 210 | 0.0 | 11.0 | 0.02 | 0.00 | 0.89 | 95 | 1007.7 |
| 20260905173256 | 54 | 210 | 0.0 | 11.0 | 0.02 | 0.00 | 0.89 | 95 | 1007.8 |
| 20260905172755 | 55 | 210 | 0.0 | 11.0 | 0.02 | 0.00 | 0.89 | 95 | 1007.7 |
| 20260905172254 | 55 | 255 | 0.0 | 11.0 | 0.02 | 0.00 | 0.89 | 95 | 1007.9 |
| 20260905171753 | 55 | 232 | 0.0 | 11.0 | 0.02 | 0.00 | 0.89 | 94 | 1007.8 |
| 20260905171252 | 55 | 214 | 0.0 | 11.0 | 0.02 | 0.00 | 0.89 | 94 | 1007.7 |
| 20260905170752 | 55 | 217 | 1.0 | 11.0 | 0.02 | 0.00 | 0.89 | 94 | 1007.6 |
| 20260905170252 | 55 | 230 | 0.0 | 11.0 | 0.02 | 0.00 | 0.89 | 94 | 1007.7 |
| 20260905165751 | 55 | 238 | 0.0 | 11.0 | 0.02 | 0.00 | 0.89 | 94 | 1007.7 |
| 20260905164734 | 55 | 213 | 1.0 | 11.0 | 0.02 | 0.00 | 0.89 | 94 | 1007.9 |
| 20260905164233 | 55 | 244 | 2.0 | 11.0 | 0.02 | 0.00 | 0.87 | 93 | 1007.2 |
| 20260905163733 | 56 | 218 | 0.0 | 11.0 | 0.01 | 0.00 | 0.86 | 94 | 1007.4 |
| 20260905163232 | 56 | 233 | 0.0 | 11.0 | 0.01 | 0.00 | 0.86 | 94 | 1007.1 |
| 20260905162216 | 56 | 243 | 0.0 | 11.0 | 0.01 | 0.00 | 0.86 | 94 | 1006.9 |
| 20260905161200 | 56 | 229 | 0.0 | 11.0 | 0.01 | 0.00 | 0.86 | 94 | 1006.9 |
| 20260905160659 | 56 | 241 | 0.0 | 11.0 | 0.01 | 0.00 | 0.86 | 93 | 1006.8 |
| 20260905160158 | 56 | 225 | 0.0 | 11.0 | 0.01 | 0.00 | 0.86 | 94 | 1006.9 |
| 20260905155658 | 56 | 220 | 1.0 | 11.0 | 0.02 | 0.00 | 0.86 | 94 | 1006.8 |
| 20260905155157 | 56 | 238 | 0.0 | 11.0 | 0.06 | 0.00 | 0.86 | 94 | 1006.9 |
| 20260905154657 | 56 | 251 | 0.0 | 11.0 | 0.06 | 0.00 | 0.86 | 94 | 1006.9 |
| 20260905154156 | 56 | 172 | 0.0 | 11.0 | 0.04 | 0.00 | 0.84 | 94 | 1006.6 |
| 20260905153655 | 56 | 219 | 1.0 | 11.0 | 0.04 | 0.00 | 0.84 | 93 | 1006.7 |
| 20260905153155 | 56 | 234 | 0.0 | 11.0 | 0.04 | 0.00 | 0.84 | 94 | 1006.6 |
| 20260905152655 | 56 | 211 | 0.0 | 11.0 | 0.04 | 0.00 | 0.84 | 93 | 1006.6 |
| 20260905151638 | 56 | 216 | 0.0 | 11.0 | 0.04 | 0.00 | 0.84 | 93 | 1006.8 |
| 20260905151137 | 56 | 213 | 0.0 | 11.0 | 0.04 | 0.00 | 0.84 | 93 | 1006.9 |
| 20260905150638 | 56 | 167 | 0.0 | 11.0 | 0.04 | 0.00 | 0.84 | 92 | 1006.9 |
| 20260905150137 | 56 | 280 | 0.0 | 11.0 | 0.04 | 0.00 | 0.84 | 92 | 1007.2 |
| 20260905145637 | 56 | 216 | 0.0 | 11.0 | 0.03 | 0.00 | 0.83 | 92 | 1007.0 |
| 20260905145137 | 57 | 218 | 1.0 | 11.0 | 0.00 | 0.00 | 0.81 | 91 | 1007.0 |
| 20260905144636 | 57 | 202 | 0.0 | 11.0 | 0.00 | 0.00 | 0.80 | 90 | 1006.7 |
| 20260905144136 | 57 | 160 | 1.0 | 11.0 | 0.00 | 0.00 | 0.80 | 90 | 1006.8 |
| 20260905143120 | 58 | 183 | 0.0 | 11.0 | 0.00 | 0.00 | 0.80 | 89 | 1006.7 |
| 20260905142106 | 59 | 207 | 1.0 | 11.0 | 0.00 | 0.00 | 0.80 | 89 | 1006.3 |
| 20260905141605 | 58 | 233 | 0.0 | 11.0 | 0.00 | 0.00 | 0.80 | 92 | 1006.0 |
| 20260905141105 | 58 | 227 | 0.0 | 11.0 | 0.00 | 0.00 | 0.80 | 93 | 1006.3 |
| 20260905140604 | 57 | 218 | 0.0 | 11.0 | 0.03 | 0.00 | 0.80 | 92 | 1006.4 |
| 20260905140103 | 57 | 205 | 0.0 | 11.0 | 0.05 | 0.00 | 0.80 | 91 | 1006.6 |
| 20260905135602 | 57 | 244 | 0.0 | 11.0 | 0.06 | 0.00 | 0.80 | 91 | 1006.7 |
| 20260905135102 | 58 | 231 | 0.0 | 11.0 | 0.06 | 0.00 | 0.80 | 90 | 1006.4 |
| 20260905134601 | 58 | 293 | 0.0 | 11.0 | 0.06 | 0.00 | 0.80 | 92 | 1006.6 |
| 20260905134101 | 57 | 225 | 0.0 | 11.0 | 0.06 | 0.00 | 0.80 | 93 | 1006.2 |
| 20260905133601 | 57 | 220 | 0.0 | 11.0 | 0.06 | 0.00 | 0.80 | 93 | 1006.4 |
| 20260905133100 | 56 | 239 | 0.0 | 11.0 | 0.06 | 0.00 | 0.80 | 93 | 1006.4 |
| 20260905132559 | 56 | 187 | 0.0 | 11.0 | 0.06 | 0.00 | 0.80 | 92 | 1006.7 |
| 20260905132100 | 56 | 215 | 0.0 | 11.0 | 0.06 | 0.00 | 0.80 | 91 | 1006.2 |
| 20260905131559 | 56 | 227 | 0.0 | 11.0 | 0.06 | 0.00 | 0.80 | 91 | 1006.2 |
| 20260905131058 | 56 | 216 | 0.0 | 11.0 | 0.06 | 0.00 | 0.80 | 90 | 1006.2 |
| 20260905130559 | 57 | 224 | 2.0 | 11.0 | 0.05 | 0.00 | 0.79 | 88 | 1006.3 |
| 20260905130058 | 58 | 215 | 1.0 | 11.0 | 0.00 | 0.00 | 0.75 | 88 | 1006.4 |
| 20260905125559 | 58 | 227 | 1.0 | 11.0 | 0.00 | 0.00 | 0.74 | 88 | 1006.0 |
| 20260905125058 | 58 | 209 | 0.0 | 11.0 | 0.00 | 0.00 | 0.74 | 87 | 1005.7 |
| 20260905124557 | 59 | 221 | 3.0 | 11.0 | 0.00 | 0.00 | 0.74 | 83 | 1006.1 |
| 20260905123542 | 61 | 222 | 4.0 | 13.0 | 0.00 | 0.00 | 0.74 | 76 | 1005.5 |
| 20260905122527 | 60 | 225 | 1.0 | 13.0 | 0.00 | 0.00 | 0.74 | 80 | 1005.4 |
| 20260905122026 | 61 | 220 | 3.0 | 13.0 | 0.00 | 0.00 | 0.74 | 79 | 1005.6 |
| 20260905121525 | 61 | 213 | 3.0 | 13.0 | 0.00 | 0.00 | 0.74 | 79 | 1005.7 |
| 20260905121024 | 60 | 229 | 1.0 | 11.0 | 0.00 | 0.00 | 0.74 | 81 | 1005.7 |
| 20260905120523 | 60 | 237 | 3.0 | 11.0 | 0.00 | 0.00 | 0.74 | 79 | 1005.3 |
| 20260905120023 | 60 | 225 | 1.0 | 11.0 | 0.00 | 0.00 | 0.74 | 81 | 1005.8 |
| 20260905115522 | 59 | 209 | 3.0 | 11.0 | 0.00 | 0.00 | 0.74 | 81 | 1005.3 |
| 20260905115021 | 59 | 267 | 0.0 | 11.0 | 0.00 | 0.00 | 0.74 | 84 | 1005.3 |
| 20260905114522 | 58 | 198 | 0.0 | 11.0 | 0.00 | 0.00 | 0.74 | 86 | 1005.4 |
| 20260905114020 | 58 | 212 | 1.0 | 11.0 | 0.00 | 0.00 | 0.74 | 85 | 1005.9 |
| 20260905113519 | 58 | 224 | 2.0 | 11.0 | 0.00 | 0.00 | 0.74 | 84 | 1005.8 |
| 20260905112503 | 59 | 229 | 0.0 | 11.0 | 0.00 | 0.00 | 0.74 | 82 | 1005.2 |
| 20260905112003 | 58 | 241 | 0.0 | 11.0 | 0.00 | 0.00 | 0.74 | 84 | 1005.2 |
| 20260905111502 | 58 | 249 | 2.0 | 11.0 | 0.00 | 0.00 | 0.74 | 84 | 1005.5 |
| 20260905111001 | 58 | 235 | 3.0 | 11.0 | 0.00 | 0.00 | 0.74 | 84 | 1005.2 |
| 20260905110501 | 59 | 243 | 1.0 | 11.0 | 0.00 | 0.00 | 0.74 | 85 | 1005.5 |
| 20260905110002 | 59 | 206 | 0.0 | 11.0 | 0.00 | 0.00 | 0.74 | 85 | 1005.4 |
| 20260905105501 | 59 | 235 | 1.0 | 11.0 | 0.00 | 0.00 | 0.74 | 84 | 1005.3 |
| 20260905105001 | 59 | 174 | 1.0 | 11.0 | 0.00 | 0.00 | 0.74 | 88 | 1005.2 |
| 20260905103945 | 57 | 159 | 0.0 | 11.0 | 0.00 | 0.00 | 0.74 | 89 | 1005.2 |
| 20260905103445 | 57 | 235 | 1.0 | 11.0 | 0.00 | 0.00 | 0.74 | 89 | 1005.4 |
| 20260905102943 | 57 | 249 | 0.0 | 11.0 | 0.00 | 0.00 | 0.74 | 89 | 1005.0 |
| 20260905102444 | 57 | 225 | 0.0 | 11.0 | 0.00 | 0.00 | 0.74 | 88 | 1005.0 |
| 20260905101429 | 58 | 202 | 2.0 | 11.0 | 0.00 | 0.00 | 0.74 | 84 | 1005.0 |
| 20260905100928 | 59 | 217 | 3.0 | 11.0 | 0.00 | 0.00 | 0.74 | 83 | 1005.0 |
| 20260905100427 | 59 | 249 | 1.0 | 11.0 | 0.00 | 0.00 | 0.74 | 83 | 1005.0 |
| 20260905095927 | 60 | 195 | 2.0 | 11.0 | 0.00 | 0.00 | 0.74 | 83 | 1004.9 |
| 20260905095426 | 60 | 213 | 1.0 | 11.0 | 0.00 | 0.00 | 0.74 | 85 | 1004.7 |
| 20260905094925 | 59 | 227 | 0.0 | 11.0 | 0.00 | 0.00 | 0.74 | 86 | 1004.6 |
| 20260905094424 | 59 | 224 | 1.0 | 11.0 | 0.00 | 0.00 | 0.74 | 87 | 1004.7 |
| 20260905092853 | 57 | 271 | 1.0 | 11.0 | 0.00 | 0.00 | 0.74 | 91 | 1004.7 |
| 20260905092352 | 57 | 237 | 1.0 | 11.0 | 0.00 | 0.00 | 0.74 | 91 | 1004.6 |
| 20260905091852 | 58 | 220 | 1.0 | 11.0 | 0.01 | 0.00 | 0.74 | 89 | 1004.5 |
| 20260905091351 | 58 | 259 | 0.0 | 11.0 | 0.04 | 0.00 | 0.74 | 90 | 1004.6 |
| 20260905090851 | 58 | 215 | 1.0 | 11.0 | 0.04 | 0.00 | 0.74 | 89 | 1004.3 |
| 20260905090350 | 58 | 205 | 0.0 | 11.0 | 0.04 | 0.00 | 0.74 | 90 | 1004.4 |
| 20260905085849 | 58 | 233 | 1.0 | 11.0 | 0.04 | 0.00 | 0.74 | 91 | 1004.4 |
| 20260905085349 | 58 | 181 | 1.0 | 11.0 | 0.04 | 0.00 | 0.74 | 92 | 1004.9 |
| 20260905084334 | 57 | 307 | 1.0 | 11.0 | 0.04 | 0.00 | 0.74 | 93 | 1004.5 |
| 20260905083833 | 57 | 318 | 0.0 | 11.0 | 0.04 | 0.00 | 0.74 | 95 | 1004.6 |
| 20260905083333 | 56 | 237 | 0.0 | 11.0 | 0.05 | 0.00 | 0.74 | 96 | 1004.2 |
| 20260905082833 | 56 | 227 | 0.0 | 11.0 | 0.05 | 0.00 | 0.74 | 95 | 1004.1 |
| 20260905081817 | 56 | 244 | 2.0 | 11.0 | 0.04 | 0.00 | 0.73 | 94 | 1004.0 |
| 20260905081316 | 56 | 223 | 1.0 | 11.0 | 0.00 | 0.00 | 0.69 | 94 | 1003.8 |
| 20260905080815 | 56 | 254 | 1.0 | 11.0 | 0.00 | 0.00 | 0.69 | 95 | 1004.1 |
| 20260905080315 | 57 | 256 | 1.0 | 11.0 | 0.00 | 0.00 | 0.69 | 96 | 1004.2 |
| 20260905075300 | 56 | 255 | 0.0 | 11.0 | 0.00 | 0.00 | 0.69 | 97 | 1003.9 |
| 20260905074800 | 55 | 261 | 0.0 | 11.0 | 0.00 | 0.00 | 0.69 | 96 | 1004.0 |
| 20260905073744 | 55 | 243 | 1.0 | 11.0 | 0.00 | 0.00 | 0.69 | 96 | 1003.9 |
| 20260905073243 | 55 | 262 | 0.0 | 11.0 | 0.00 | 0.00 | 0.69 | 96 | 1003.7 |
| 20260905072228 | 55 | 231 | 2.0 | 11.0 | 0.00 | 0.00 | 0.69 | 96 | 1003.6 |
| 20260905071727 | 55 | 249 | 0.0 | 11.0 | 0.00 | 0.00 | 0.69 | 97 | 1003.7 |
| 20260905070710 | 55 | 316 | 1.0 | 11.0 | 0.01 | 0.00 | 0.69 | 96 | 1003.8 |
| 20260905070209 | 55 | 325 | 0.0 | 11.0 | 0.01 | 0.00 | 0.69 | 97 | 1003.7 |
| 20260905064636 | 55 | 300 | 1.0 | 11.0 | 0.01 | 0.00 | 0.69 | 97 | 1003.4 |
| 20260905064136 | 55 | 270 | 1.0 | 11.0 | 0.02 | 0.00 | 0.69 | 97 | 1003.5 |
| 20260905063635 | 55 | 292 | 1.0 | 11.0 | 0.02 | 0.00 | 0.69 | 97 | 1003.5 |
| 20260905063135 | 55 | 192 | 1.0 | 11.0 | 0.01 | 0.00 | 0.68 | 97 | 1003.5 |
| 20260905062634 | 55 | 291 | 1.0 | 11.0 | 0.01 | 0.00 | 0.68 | 97 | 1003.4 |
| 20260905062134 | 55 | 299 | 1.0 | 11.0 | 0.01 | 0.00 | 0.68 | 97 | 1003.3 |
| 20260905061633 | 55 | 271 | 1.0 | 11.0 | 0.01 | 0.00 | 0.68 | 97 | 1003.4 |
| 20260905061132 | 55 | 241 | 0.0 | 11.0 | 0.01 | 0.00 | 0.68 | 97 | 1003.1 |
| 20260905060631 | 54 | 225 | 1.0 | 11.0 | 0.00 | 0.00 | 0.67 | 97 | 1003.3 |
| 20260905060131 | 54 | 241 | 1.0 | 11.0 | 0.00 | 0.00 | 0.67 | 97 | 1003.0 |
| 20260905055631 | 54 | 234 | 1.0 | 11.0 | 0.00 | 0.00 | 0.67 | 97 | 1002.9 |
| 20260905055131 | 55 | 233 | 1.0 | 11.0 | 0.00 | 0.00 | 0.67 | 97 | 1003.0 |
| 20260905054630 | 55 | 234 | 0.0 | 11.0 | 0.00 | 0.00 | 0.67 | 97 | 1003.1 |
| 20260905054130 | 55 | 261 | 0.0 | 11.0 | 0.00 | 0.00 | 0.66 | 98 | 1002.8 |
| 20260905053630 | 54 | 242 | 0.0 | 11.0 | 0.00 | 0.00 | 0.66 | 98 | 1003.1 |
| 20260905053129 | 54 | 265 | 0.0 | 11.0 | 0.00 | 0.00 | 0.66 | 97 | 1002.8 |
| 20260905052628 | 54 | 286 | 0.0 | 11.0 | 0.00 | 0.00 | 0.66 | 98 | 1002.7 |
| 20260905052128 | 54 | 230 | 0.0 | 11.0 | 0.00 | 0.00 | 0.66 | 97 | 1002.5 |
| 20260905051627 | 54 | 233 | 0.0 | 11.0 | 0.00 | 0.00 | 0.66 | 97 | 1002.4 |
| 20260905051126 | 54 | 247 | 0.0 | 11.0 | 0.00 | 0.00 | 0.66 | 97 | 1002.7 |
| 20260905050625 | 54 | 211 | 0.0 | 11.0 | 0.02 | 0.00 | 0.66 | 97 | 1002.8 |
| 20260905050124 | 54 | 311 | 0.0 | 11.0 | 0.02 | 0.00 | 0.66 | 97 | 1002.6 |
| 20260905045623 | 54 | 279 | 0.0 | 11.0 | 0.02 | 0.00 | 0.66 | 98 | 1002.5 |
| 20260905045122 | 54 | 295 | 1.0 | 11.0 | 0.02 | 0.00 | 0.66 | 98 | 1002.3 |
| 20260905044621 | 54 | 280 | 0.0 | 11.0 | 0.02 | 0.00 | 0.66 | 98 | 1002.5 |
| 20260905044121 | 54 | 263 | 1.0 | 11.0 | 0.02 | 0.00 | 0.66 | 98 | 1002.4 |
| 20260905043620 | 54 | 290 | 1.0 | 11.0 | 0.02 | 0.00 | 0.66 | 98 | 1002.6 |
| 20260905043120 | 54 | 315 | 1.0 | 11.0 | 0.02 | 0.00 | 0.66 | 98 | 1002.5 |
| 20260905042103 | 54 | 283 | 1.0 | 11.0 | 0.03 | 0.00 | 0.66 | 98 | 1002.6 |
| 20260905041603 | 53 | 219 | 0.0 | 13.0 | 0.03 | 0.00 | 0.65 | 98 | 1002.3 |
| 20260905041102 | 53 | 265 | 0.0 | 13.0 | 0.04 | 0.00 | 0.65 | 98 | 1002.2 |
| 20260905040602 | 53 | 279 | 0.0 | 13.0 | 0.03 | 0.00 | 0.63 | 98 | 1002.0 |
| 20260905035602 | 53 | 228 | 0.0 | 13.0 | 0.06 | 0.00 | 0.63 | 98 | 1002.1 |
| 20260905035101 | 53 | 196 | 0.0 | 13.0 | 0.06 | 0.00 | 0.63 | 98 | 1002.6 |
| 20260905034044 | 53 | 252 | 0.0 | 13.0 | 0.06 | 0.00 | 0.63 | 98 | 1002.0 |
| 20260905033543 | 53 | 222 | 0.0 | 13.0 | 0.06 | 0.00 | 0.63 | 98 | 1002.0 |
| 20260905033042 | 53 | 286 | 0.0 | 13.0 | 0.07 | 0.00 | 0.63 | 98 | 1001.8 |
| 20260905032541 | 53 | 358 | 0.0 | 13.0 | 0.07 | 0.00 | 0.63 | 98 | 1002.1 |
| 20260905032041 | 53 | 337 | 0.0 | 13.0 | 0.06 | 0.00 | 0.62 | 98 | 1002.2 |
| 20260905031540 | 53 | 271 | 0.0 | 13.0 | 0.07 | 0.00 | 0.62 | 98 | 1001.9 |
| 20260905030525 | 53 | 246 | 0.0 | 13.0 | 0.05 | 0.00 | 0.60 | 98 | 1002.0 |
| 20260905030025 | 53 | 257 | 0.0 | 13.0 | 0.04 | 0.00 | 0.59 | 98 | 1001.6 |
| 20260905025525 | 53 | 261 | 0.0 | 13.0 | 0.01 | 0.00 | 0.56 | 98 | 1001.9 |
| 20260905025025 | 53 | 232 | 0.0 | 13.0 | 0.01 | 0.00 | 0.56 | 98 | 1001.7 |
| 20260905024525 | 53 | 226 | 0.0 | 13.0 | 0.01 | 0.00 | 0.56 | 98 | 1001.5 |
| 20260905024025 | 53 | 175 | 0.0 | 13.0 | 0.01 | 0.00 | 0.56 | 98 | 1002.0 |
| 20260905023010 | 53 | 258 | 0.0 | 13.0 | 0.01 | 0.00 | 0.55 | 98 | 1001.4 |
| 20260905022509 | 53 | 258 | 0.0 | 13.0 | 0.01 | 0.00 | 0.55 | 98 | 1001.7 |
| 20260905022009 | 53 | 240 | 0.0 | 13.0 | 0.01 | 0.00 | 0.55 | 98 | 1001.4 |
| 20260905021509 | 53 | 242 | 0.0 | 13.0 | 0.01 | 0.00 | 0.55 | 98 | 1001.4 |
| 20260905021008 | 53 | 205 | 0.0 | 13.0 | 0.00 | 0.00 | 0.55 | 98 | 1001.8 |
| 20260905020507 | 53 | 267 | 0.0 | 13.0 | 0.00 | 0.00 | 0.55 | 98 | 1001.4 |
| 20260905020007 | 53 | 268 | 0.0 | 13.0 | 0.01 | 0.00 | 0.55 | 98 | 1000.9 |
| 20260905015507 | 53 | 271 | 0.0 | 13.0 | 0.01 | 0.00 | 0.55 | 98 | 1001.2 |
| 20260905014452 | 53 | 291 | 0.0 | 13.0 | 0.01 | 0.00 | 0.55 | 98 | 1000.9 |
| 20260905013952 | 53 | 182 | 0.0 | 13.0 | 0.01 | 0.00 | 0.55 | 98 | 1001.2 |
| 20260905013451 | 53 | 188 | 0.0 | 13.0 | 0.02 | 0.00 | 0.55 | 98 | 1001.4 |
| 20260905012950 | 53 | 184 | 0.0 | 13.0 | 0.01 | 0.00 | 0.54 | 97 | 1001.0 |
| 20260905012449 | 53 | 194 | 0.0 | 13.0 | 0.02 | 0.00 | 0.54 | 97 | 1001.1 |
| 20260905011949 | 53 | 271 | 0.0 | 13.0 | 0.04 | 0.00 | 0.54 | 97 | 1000.8 |
| 20260905011449 | 53 | 188 | 0.0 | 13.0 | 0.05 | 0.00 | 0.54 | 97 | 1001.0 |
| 20260905010949 | 53 | 188 | 0.0 | 13.0 | 0.06 | 0.00 | 0.54 | 97 | 1001.1 |
| 20260905010449 | 53 | 264 | 0.0 | 13.0 | 0.08 | 0.00 | 0.54 | 97 | 1001.1 |
| 20260905005949 | 53 | 307 | 0.0 | 13.0 | 0.11 | 0.00 | 0.54 | 97 | 1000.6 |
| 20260905005449 | 53 | 266 | 0.0 | 13.0 | 0.12 | 0.00 | 0.53 | 97 | 1000.9 |
| 20260905004948 | 53 | 260 | 0.0 | 13.0 | 0.17 | 0.00 | 0.53 | 97 | 1000.9 |
| 20260905004448 | 53 | 262 | 0.0 | 13.0 | 0.22 | 0.00 | 0.53 | 97 | 1000.8 |
| 20260905003432 | 53 | 191 | 0.0 | 13.0 | 0.27 | 0.00 | 0.52 | 97 | 1000.9 |
| 20260905002931 | 53 | 203 | 0.0 | 13.0 | 0.29 | 0.00 | 0.52 | 97 | 1000.9 |
| 20260905001916 | 53 | 222 | 0.0 | 13.0 | 0.28 | 0.00 | 0.51 | 97 | 1001.0 |
| 20260905001415 | 53 | 265 | 0.0 | 13.0 | 0.27 | 0.00 | 0.49 | 97 | 1000.5 |
| 20260905000915 | 54 | 263 | 0.0 | 13.0 | 0.26 | 0.00 | 0.48 | 97 | 1000.6 |